[[{"header":{"parameterUnit":"m.s-1","parameterCategory":1,"la1":30.2991,"la2":30.254,"lo1":-89.0895,"lo2":-89.0444,"dy":0.0017,"dx":0.0017,"nx":28,"ny":28,"refTime":"2024-04-07T21:00:00:Z","depth":0,"parameterNumber":2,"parameterNumberName":"U-component_of_WINDS"},"data":[0,0,0,0,0,0,0,0,0,0,0,0,0,0,0,0,0,0,0,0,0,0,0,0,0,0,0,0,0,0,0,0,0,0,0,0,0,0,0,0,0,0,0,0,0,0,0,0,0,0,0,0,0,0,0,0,0,0,-2.9093,-2.9094,0,-2.9239,-2.9241,-2.9243,-2.9288,-2.9288,-2.9287,-2.9286,-2.9435,-2.944,-2.9444,0,0,0,0,0,0,0,0,0,0,0,0,0,-2.8851,-2.8855,-2.9092,-2.9094,-2.9096,-2.9239,-2.9241,-2.9243,-2.9288,-2.9287,-2.9287,-2.9286,-2.9434,-2.9439,-2.9445,0,0,0,0,0,0,0,0,0,0,0,0,0,-2.8972,-2.8856,-2.9092,-2.9136,-2.9141,-2.9239,-2.9241,-2.9244,-2.9289,-2.9287,-2.9286,-2.9285,-2.9432,-2.9439,-2.9445,-2.951,0,0,-2.9467,-2.947,0,0,0,0,0,0,0,0,-2.8965,-2.8981,-2.9128,-2.9133,-2.9139,-2.9244,-2.9211,-2.9333,-2.9289,-2.9233,-2.9286,-2.9285,-2.9372,-2.9384,-2.9414,-2.9517,-2.9523,-2.9467,-2.9471,-2.9474,-2.9476,0,0,0,0,0,0,0,-2.8957,-2.8975,-2.9151,-2.913,-2.9137,-2.9148,-2.9164,-2.9234,-2.9307,-2.9237,-2.9241,-2.9258,-2.9375,-2.9407,-2.9418,-2.9525,-2.9467,-2.9473,-2.9478,-2.948,-2.9688,-2.9689,0,0,0,0,0,0,-2.8941,-2.8968,-2.9146,-2.9155,-2.9048,-2.9153,-2.9171,-2.9212,-2.9306,-2.9319,-2.9259,-2.9259,-2.9396,-2.941,-2.9423,-2.9504,-2.9474,-2.9481,-2.9485,-2.9687,-2.9688,-2.969,0,0,0,0,0,0,-2.8936,-2.8957,-2.914,-2.9062,-2.9087,-2.9159,-2.9204,-2.9215,-2.9247,-2.9322,-2.9335,-2.9278,-2.9396,-2.9414,-2.9488,-2.951,-2.9484,-2.949,-2.9685,-2.9687,-2.9689,-2.9667,0,0,0,0,0,0,-2.8929,-2.8954,-2.8979,-2.9063,-2.9091,-2.9202,-2.9205,-2.9219,-2.9259,-2.9261,-2.9344,-2.9356,-2.9396,-2.9477,-2.9495,-2.9519,-2.9496,-2.9683,-2.9686,-2.9689,-2.9666,-2.9668,-2.9669,0,0,0,0,0,-2.892,-2.8967,-2.898,-2.9001,-2.9123,-2.9203,-2.9219,-2.9265,-2.9261,-2.9286,-2.9335,-2.9353,-2.9505,-2.9485,-2.9505,-2.9531,-2.9682,-2.9685,-2.9688,-2.9665,-2.9667,-2.9669,0,0,0,0,0,0,-2.8883,-2.8978,-2.8994,-2.907,-2.9128,-2.9211,-2.9244,-2.9266,-2.9326,-2.9326,-2.938,-2.9398,-2.9468,-2.9508,-2.9483,-2.9599,-2.9595,-2.9602,-2.957,-2.9573,-2.9575,-2.9563,-2.9502,0,0,0,0,0,-2.8884,-2.8941,-2.9021,-2.908,-2.9108,-2.9171,-2.9208,-2.9238,-2.93,-2.9325,-2.9379,-2.9439,-2.95,-2.9539,-2.9599,-2.9673,-2.9691,-2.9701,-2.9703,-2.9704,-2.9709,-2.9751,-2.9756,-2.97,-2.97,-2.97,0,0,-2.8886,-2.8945,-2.8977,-2.9074,-2.9123,-2.918,-2.9192,-2.9252,-2.9295,-2.9334,-2.9407,-2.945,-2.952,-2.9594,-2.9629,-2.9629,-2.9729,-2.9708,-2.9708,-2.9713,-2.9754,-2.9759,-2.9764,-2.9702,-2.9702,-2.9701,0,0,-2.8918,-2.8969,-2.9023,-2.9073,-2.9147,-2.9189,-2.9202,-2.9282,-2.9311,-2.9386,-2.9417,-2.9469,-2.9574,-2.9622,-2.9661,-2.9714,-2.9733,-2.9732,-2.9741,-2.9781,-2.9785,-2.9789,-2.9807,-2.9813,-2.9737,-2.9737,-2.9737,0,-2.8911,-2.8999,-2.9049,-2.9108,-2.9149,-2.9189,-2.9244,-2.9289,-2.9379,-2.9407,-2.9406,-2.9538,-2.9588,-2.9674,-2.9687,-2.9718,-2.9734,-2.9722,-2.9781,-2.9785,-2.979,-2.9808,-2.9815,-2.9737,-2.9737,-2.9737,-2.9737,0,-2.8986,-2.9047,-2.9082,-2.9168,-2.9214,-2.9271,-2.9329,-2.937,-2.9397,-2.9439,-2.9515,-2.9577,-2.9651,-2.9674,-2.9701,-2.9764,-2.9762,-2.977,-2.9767,-2.9794,-2.9811,-2.9819,-2.9736,-2.9736,-2.9736,-2.9736,0,0,-2.8997,-2.9111,-2.9123,-2.9163,-2.9249,-2.9297,-2.9356,-2.9429,-2.9462,-2.9524,-2.9574,-2.9663,-2.9672,-2.9715,-2.9748,-2.9784,-2.9821,-2.9788,-2.9791,-2.9791,-2.9894,-2.9886,-2.9893,-2.9836,-2.9837,-2.9838,-2.9888,0,-2.9039,-2.9146,-2.9194,-2.9279,-2.9336,-2.9376,-2.9427,-2.9485,-2.9527,-2.9581,-2.9627,-2.9688,-2.9696,-2.9722,-2.9759,-2.9809,-2.9842,-2.9806,-2.9882,-2.9884,-2.9861,-2.9903,-2.9894,-2.9938,-2.9895,-2.9897,-2.9898,0,-2.9102,-2.9164,-2.9256,-2.9335,-2.9361,-2.9406,-2.9477,-2.9529,-2.9596,-2.9624,-2.9674,-2.9705,-2.9769,-2.9763,-2.9852,-2.9826,-2.9861,-2.989,-2.9893,-2.99,-2.9891,-2.9909,-2.9953,-2.9958,-2.9909,-2.9908,-2.9907,0,-2.9099,-2.9206,-2.9275,-2.9308,-2.9403,-2.9434,-2.9475,-2.9541,-2.9582,-2.9645,-2.9672,-2.9741,-2.9778,-2.9831,-2.988,-2.9872,-2.9964,-2.9962,-2.9988,-2.9987,-3.0004,-3.0002,-3.0052,-3.0029,-3.0029,-3.0029,-3.0029,0,-2.9141,-2.9195,-2.9275,-2.9317,-2.9379,-2.9433,-2.9493,-2.9537,-2.9596,-2.9647,-2.9686,-2.9733,-2.9797,-2.9852,-2.9892,-2.9959,-2.9976,-2.9999,-3.0009,-2.9995,-2.9992,-3.0017,-3.0014,-3.0031,-3.003,-3.003,-3.0029,0,-2.9147,-2.9203,-2.928,-2.9364,-2.9387,-2.9429,-2.9501,-2.9543,-2.9587,-2.9652,-2.967,-2.9739,-2.9806,-2.9862,-2.995,-2.9977,-3.0046,-3.0058,-3.0023,-3.0028,-3.005,-3.0047,-3.0116,-3.0128,-3.0099,-3.0099,-3.0099,0,-2.9169,-2.9211,-2.93,-2.9338,-2.9378,-2.9438,-2.948,-2.9536,-2.9579,-2.966,-2.9692,-2.9762,-2.9821,-2.9927,-2.9985,-3.0053,-3.0066,-3.0086,-3.0076,-3.0061,-3.0065,-3.0061,-3.0065,-3.0086,-3.0086,-3.0086,-3.0086,0,-2.9201,-2.9227,-2.9287,-2.9357,-2.9407,-2.9464,-2.9523,-2.9551,-2.9618,-2.9664,-2.9734,-2.9779,-2.987,-2.9939,-3.0014,-3.0056,-3.0082,-3.0089,-3.0098,-3.0083,-3.0061,-3.0072,-3.0024,-3.0086,-3.0086,-3.0086,-3.0086,-3.0086,-2.9215,-2.9255,-2.9324,-2.9389,-2.944,-2.9494,-2.9538,-2.9588,-2.9647,-2.9725,-2.9755,-2.9826,-2.9894,-2.9996,-3.0039,-3.0096,-3.0099,-3.0112,-3.0116,-3.0118,-3.0115,-3.0054,-3.011,-3.011,-3.011,-3.011,-3.011,0,-2.9248,-2.9295,-2.9355,-2.9436,-2.9488,-2.9509,-2.9576,-2.9617,-2.9679,-2.974,-2.9798,-2.9878,-2.9946,-3.001,-3.0081,-3.0114,-3.0128,-3.0131,-3.0128,-3.0137,-3.0109,-3.0093,-3.0118,-3.0118,-3.0118,-3.0118,-3.0118,-3.0118,-2.9271,-2.934,-2.9374,-2.9468,-2.9515,-2.9585,-2.9621,-2.9671,-2.972,-2.9808,-2.9865,-2.9906,-2.9969,-3.0045,-3.0108,-3.0125,-3.0149,-3.0148,-3.0168,-3.0141,-3.0139,-3.0137,-3.0123,-3.0153,-3.0153,-3.0192,-3.0192,-3.0192]},{"header":{"parameterUnit":"m.s-1","parameterCategory":1,"la1":30.2991,"la2":30.254,"lo1":-89.0895,"lo2":-89.0444,"dy":0.0017,"dx":0.0017,"nx":28,"ny":28,"refTime":"2024-04-07T21:00:00:Z","depth":0,"parameterNumber":3,"parameterNumberName":"V-component_of_WINDS"},"data":[0,0,0,0,0,0,0,0,0,0,0,0,0,0,0,0,0,0,0,0,0,0,0,0,0,0,0,0,0,0,0,0,0,0,0,0,0,0,0,0,0,0,0,0,0,0,0,0,0,0,0,0,0,0,0,0,0,0,3.5985,3.5986,0,3.604,3.604,3.6041,3.6033,3.6032,3.6031,3.603,3.6087,3.6089,3.6091,0,0,0,0,0,0,0,0,0,0,0,0,0,3.5878,3.588,3.5985,3.5986,3.5987,3.6039,3.604,3.6041,3.6033,3.6032,3.6031,3.603,3.6086,3.6089,3.6092,0,0,0,0,0,0,0,0,0,0,0,0,0,3.5928,3.5881,3.5985,3.5989,3.599,3.6039,3.604,3.6041,3.6033,3.6032,3.6031,3.6029,3.6085,3.6089,3.6092,3.6141,0,0,3.6103,3.6104,0,0,0,0,0,0,0,0,3.5925,3.5932,3.5988,3.5989,3.599,3.6028,3.6023,3.6075,3.6034,3.6017,3.603,3.6029,3.6068,3.6073,3.6086,3.6144,3.6146,3.6103,3.6105,3.6107,3.6108,0,0,0,0,0,0,0,3.5921,3.5929,3.6007,3.5989,3.599,3.5989,3.5995,3.6033,3.605,3.6018,3.6018,3.6024,3.6069,3.6083,3.6088,3.6147,3.6103,3.6106,3.6108,3.611,3.625,3.6252,0,0,0,0,0,0,3.5917,3.5926,3.6005,3.6008,3.5953,3.5992,3.5998,3.6017,3.6049,3.6053,3.6026,3.6024,3.6078,3.6084,3.609,3.615,3.6107,3.611,3.6112,3.6248,3.625,3.6252,0,0,0,0,0,0,3.5914,3.5924,3.6003,3.5967,3.5977,3.5996,3.6017,3.6019,3.6033,3.6055,3.6058,3.6037,3.6077,3.6085,3.6129,3.6152,3.6112,3.6115,3.6246,3.6249,3.6251,3.6272,0,0,0,0,0,0,3.5911,3.5923,3.5941,3.5968,3.5979,3.604,3.6018,3.6021,3.6039,3.6038,3.6066,3.607,3.6076,3.6124,3.6132,3.6156,3.6118,3.6244,3.6248,3.625,3.6269,3.6274,3.6279,0,0,0,0,0,3.5907,3.5944,3.5942,3.5951,3.6002,3.6041,3.6048,3.6055,3.6041,3.606,3.6074,3.6069,3.6149,3.6128,3.6138,3.6163,3.6243,3.6247,3.625,3.6267,3.6273,3.6279,0,0,0,0,0,0,3.5919,3.5947,3.5945,3.5991,3.6014,3.604,3.6064,3.6062,3.6089,3.6086,3.6094,3.6101,3.6146,3.6159,3.6136,3.6214,3.6194,3.62,3.6203,3.621,3.6215,3.621,3.612,0,0,0,0,0,3.5927,3.5956,3.598,3.6018,3.603,3.6045,3.6062,3.6066,3.609,3.61,3.6117,3.6141,3.6172,3.6192,3.6221,3.6272,3.6278,3.6294,3.6299,3.6303,3.6308,3.6338,3.6345,3.6264,3.6264,3.6264,0,0,3.5943,3.5962,3.598,3.6021,3.6039,3.607,3.6053,3.6086,3.6109,3.6105,3.6148,3.6162,3.6189,3.6237,3.6259,3.625,3.6332,3.6308,3.6311,3.6314,3.6342,3.635,3.6357,3.6266,3.6266,3.6266,0,0,3.5989,3.6006,3.6041,3.606,3.6088,3.6098,3.6107,3.6134,3.6143,3.6186,3.6184,3.6213,3.6265,3.6285,3.6303,3.636,3.6356,3.6369,3.6396,3.6425,3.6431,3.6437,3.6458,3.6466,3.6374,3.6374,3.6374,0,3.6006,3.6052,3.6059,3.6093,3.6112,3.611,3.6146,3.6165,3.6201,3.6214,3.6203,3.6271,3.6289,3.6343,3.6357,3.6371,3.6382,3.6365,3.6429,3.6435,3.6441,3.6461,3.6469,3.6376,3.6376,3.6375,3.6375,0,3.6072,3.6104,3.6129,3.6164,3.6186,3.6221,3.6235,3.6257,3.626,3.6272,3.6317,3.634,3.6374,3.6388,3.639,3.6443,3.6436,3.6427,3.6407,3.645,3.6469,3.6477,3.6378,3.6377,3.6377,3.6376,0,0,3.6124,3.6165,3.6174,3.6191,3.6223,3.6249,3.6285,3.6319,3.6338,3.6364,3.6395,3.6441,3.6434,3.6454,3.6459,3.6484,3.653,3.6473,3.6474,3.6483,3.6591,3.6597,3.6606,3.6529,3.653,3.6531,3.6589,0,3.6173,3.6236,3.6245,3.6301,3.6332,3.6332,3.6364,3.6388,3.6401,3.643,3.6445,3.6478,3.6465,3.6477,3.6503,3.6519,3.6552,3.6515,3.6558,3.656,3.6551,3.6616,3.6622,3.6675,3.6596,3.6598,3.6598,0,3.6238,3.6266,3.6325,3.6355,3.6369,3.6397,3.643,3.6458,3.6486,3.6494,3.6518,3.6521,3.656,3.6539,3.6594,3.6569,3.6588,3.6599,3.6601,3.6605,3.6581,3.6621,3.6692,3.67,3.661,3.6609,3.6609,0,3.6271,3.6324,3.6367,3.6381,3.6417,3.6437,3.6453,3.648,3.6501,3.6531,3.6545,3.6579,3.6598,3.6625,3.6638,3.6621,3.6692,3.6672,3.6701,3.67,3.6714,3.6713,3.6789,3.6727,3.6727,3.6727,3.6727,0,3.6325,3.6361,3.6382,3.6408,3.645,3.6461,3.6502,3.6518,3.6543,3.6573,3.6576,3.6604,3.662,3.6651,3.6662,3.6707,3.6715,3.6723,3.6726,3.6723,3.6722,3.6735,3.6731,3.6729,3.6728,3.6728,3.6728,0,3.6368,3.6383,3.643,3.6461,3.647,3.6499,3.6526,3.6552,3.6566,3.6605,3.6615,3.6637,3.6675,3.6691,3.6736,3.6744,3.6795,3.6795,3.6785,3.6786,3.6814,3.6811,3.69,3.6913,3.6842,3.6843,3.6844,0,3.6401,3.6429,3.6463,3.6484,3.6501,3.6533,3.6555,3.6569,3.6591,3.6627,3.665,3.6687,3.6718,3.6778,3.6799,3.6835,3.6835,3.6864,3.6841,3.6838,3.6836,3.6835,3.6838,3.6868,3.6869,3.6869,3.687,0,3.6458,3.6465,3.6496,3.653,3.6556,3.6584,3.6611,3.6628,3.6646,3.6672,3.671,3.6734,3.6782,3.682,3.6858,3.6875,3.6876,3.6877,3.6886,3.6883,3.6877,3.6881,3.6797,3.6875,3.6874,3.6874,3.6874,3.6874,3.6498,3.6523,3.6552,3.6587,3.6609,3.6635,3.6662,3.668,3.6712,3.6752,3.6758,3.68,3.683,3.6881,3.69,3.6934,3.6927,3.6939,3.6942,3.6945,3.6947,3.6872,3.6941,3.6941,3.6941,3.6941,3.6941,0,3.6556,3.6575,3.6607,3.6645,3.6673,3.6672,3.6703,3.6727,3.6763,3.6791,3.6822,3.6867,3.6905,3.6929,3.6968,3.699,3.6992,3.7,3.6998,3.7002,3.6951,3.694,3.6998,3.6998,3.6998,3.6998,3.6998,3.6998,3.6589,3.6633,3.6644,3.6699,3.6719,3.6759,3.6777,3.6802,3.6824,3.6875,3.6906,3.6922,3.6949,3.699,3.7025,3.7032,3.7046,3.7054,3.7061,3.7012,3.7006,3.7,3.699,3.7057,3.7057,3.7109,3.711,3.711]}]]